When you browse on this site, cookies collect data to enhance your experience and personalize the content and advertising you see.
Visit our Privacy Policy to learn more. By continuing to use the site, you agree to this use of cookies and data.
  • Em Portugal
  • Lista de países
  • Para 7 dias
  • Temperatura da água
  • Mapa do tempo
  • Widgets de tempo
  • user-avatar
    Iniciar Sessão

    Previsão horária em Pasierbiec

    Hoje, 20 Setembro, Sexta-feira

    Tempo Temperatura Precipitação Vento Pressão Humidade
    00:00 +3°C° 0 mm 2 m/s 725 mmHg 92%
    01:00 +3°C° 0 mm 2 m/s 725 mmHg 92%
    02:00 +3°C° 0 mm 2 m/s 725 mmHg 92%
    03:00 +3°C° 0 mm 2 m/s 725 mmHg 92%
    04:00 +3°C° 0 mm 2 m/s 724 mmHg 93%
    05:00 +3°C° 0 mm 2 m/s 725 mmHg 91%
    06:00 +4°C° 0 mm 2 m/s 725 mmHg 89%
    07:00 +5°C° 0 mm 2 m/s 725 mmHg 86%
    08:00 +7°C° 0 mm 3 m/s 725 mmHg 80%
    09:00 +8°C° 0 mm 3 m/s 725 mmHg 73%
    10:00 +10°C° 0 mm 4 m/s 726 mmHg 67%
    11:00 +10°C° 0.2 mm 4 m/s 725 mmHg 63%
    12:00 +11°C° 0.2 mm 4 m/s 725 mmHg 59%
    13:00 +12°C° 0.2 mm 5 m/s 725 mmHg 56%
    14:00 +11°C° 0.1 mm 4 m/s 725 mmHg 58%
    15:00 +11°C° 0.1 mm 4 m/s 725 mmHg 61%
    16:00 +11°C° 0.1 mm 3 m/s 724 mmHg 63%
    17:00 +9°C° 0 mm 2 m/s 724 mmHg 70%
    18:00 +8°C° 0 mm 2 m/s 724 mmHg 76%
    19:00 +7°C° 0 mm 1 m/s 724 mmHg 83%
    20:00 +7°C° 0 mm 1 m/s 725 mmHg 83%
    21:00 +6°C° 0 mm 1 m/s 725 mmHg 84%
    22:00 +5°C° 0 mm 2 m/s 725 mmHg 85%
    23:00 +5°C° 0 mm 2 m/s 725 mmHg 86%

    Amanhã, 21 Setembro, Sábado

    Tempo Temperatura Precipitação Vento Pressão Humidade
    00:00 +5°C° 0 mm 2 m/s 725 mmHg 87%
    01:00 +5°C° 0 mm 2 m/s 725 mmHg 88%
    02:00 +4°C° 0 mm 2 m/s 725 mmHg 88%
    03:00 +4°C° 0 mm 2 m/s 725 mmHg 88%
    04:00 +4°C° 0 mm 2 m/s 724 mmHg 88%
    05:00 +5°C° 0 mm 2 m/s 725 mmHg 85%
    06:00 +6°C° 0 mm 2 m/s 725 mmHg 82%
    07:00 +8°C° 0 mm 1 m/s 725 mmHg 78%
    08:00 +10°C° 0 mm 1 m/s 725 mmHg 70%
    09:00 +13°C° 0 mm 1 m/s 725 mmHg 61%
    10:00 +15°C° 0 mm 1 m/s 726 mmHg 53%
    11:00 +16°C° 0 mm 1 m/s 725 mmHg 51%
    12:00 +18°C° 0 mm 1 m/s 725 mmHg 49%
    13:00 +19°C° 0 mm 1 m/s 725 mmHg 47%
    14:00 +18°C° 0 mm 1 m/s 724 mmHg 51%
    15:00 +18°C° 0 mm 1 m/s 724 mmHg 54%
    16:00 +16°C° 0 mm 1 m/s 724 mmHg 58%
    17:00 +14°C° 0 mm 1 m/s 723 mmHg 65%
    18:00 +12°C° 0 mm 1 m/s 723 mmHg 72%
    19:00 +10°C° 0 mm 1 m/s 723 mmHg 79%
    20:00 +10°C° 0 mm 1 m/s 723 mmHg 80%
    21:00 +9°C° 0 mm 1 m/s 723 mmHg 81%
    22:00 +9°C° 0 mm 1 m/s 723 mmHg 82%
    23:00 +9°C° 0 mm 1 m/s 723 mmHg 82%

    Depois de amanhã, 22 Setembro, Domingo

    Tempo Temperatura Precipitação Vento Pressão Humidade
    00:00 +8°C° 0 mm 1 m/s 723 mmHg 82%
    01:00 +8°C° 0 mm 1 m/s 723 mmHg 83%
    02:00 +8°C° 0 mm 1 m/s 722 mmHg 82%
    03:00 +8°C° 0 mm 1 m/s 722 mmHg 82%
    04:00 +8°C° 0 mm 1 m/s 722 mmHg 82%
    05:00 +9°C° 0 mm 1 m/s 722 mmHg 79%
    06:00 +9°C° 0 mm 1 m/s 722 mmHg 76%
    07:00 +10°C° 0 mm 1 m/s 722 mmHg 73%
    08:00 +13°C° 0 mm 1 m/s 722 mmHg 65%
    09:00 +15°C° 0 mm 1 m/s 722 mmHg 58%
    10:00 +19°C° 0 mm 1 m/s 722 mmHg 50%
    11:00 +20°C° 0 mm 1 m/s 722 mmHg 48%
    12:00 +21°C° 0 mm 1 m/s 722 mmHg 46%
    13:00 +22°C° 0 mm 1 m/s 721 mmHg 44%
    14:00 +21°C° 0 mm 1 m/s 721 mmHg 49%
    15:00 +21°C° 0 mm 1 m/s 720 mmHg 53%
    16:00 +20°C° 0 mm 1 m/s 720 mmHg 57%
    17:00 +18°C° 0 mm 1 m/s 720 mmHg 63%
    18:00 +14°C° 0 mm 1 m/s 719 mmHg 69%
    19:00 +12°C° 0 mm 1 m/s 719 mmHg 76%
    20:00 +12°C° 0 mm 1 m/s 719 mmHg 76%
    21:00 +11°C° 0 mm 1 m/s 719 mmHg 76%
    22:00 +10°C° 0 mm 1 m/s 719 mmHg 77%
    23:00 +10°C° 0 mm 1 m/s 719 mmHg 76%

    23 Setembro, Segunda-feira

    Tempo Temperatura Precipitação Vento Pressão Humidade
    00:00 +10°C° 0 mm 1 m/s 718 mmHg 76%
    01:00 +10°C° 0 mm 1 m/s 718 mmHg 75%
    02:00 +10°C° 0 mm 1 m/s 718 mmHg 72%
    03:00 +10°C° 0 mm 1 m/s 717 mmHg 69%
    04:00 +11°C° 0 mm 1 m/s 717 mmHg 66%
    05:00 +11°C° 0 mm 1 m/s 717 mmHg 64%
    06:00 +12°C° 0 mm 1 m/s 717 mmHg 63%
    07:00 +12°C° 0 mm 1 m/s 717 mmHg 61%
    08:00 +13°C° 0 mm 1 m/s 717 mmHg 61%
    09:00 +14°C° 0 mm 2 m/s 717 mmHg 60%
    10:00 +15°C° 0 mm 2 m/s 717 mmHg 60%
    11:00 +15°C° 0 mm 2 m/s 717 mmHg 62%
    12:00 +15°C° 0 mm 2 m/s 717 mmHg 65%
    13:00 +15°C° 0 mm 2 m/s 716 mmHg 67%
    14:00 +15°C° 0 mm 1 m/s 716 mmHg 69%
    15:00 +14°C° 0 mm 1 m/s 716 mmHg 71%
    16:00 +14°C° 0 mm 1 m/s 716 mmHg 73%
    17:00 +14°C° 0 mm 1 m/s 716 mmHg 74%
    18:00 +13°C° 0 mm 1 m/s 716 mmHg 75%
    19:00 +13°C° 0 mm 1 m/s 716 mmHg 77%
    20:00 +13°C° 0 mm 1 m/s 716 mmHg 77%
    21:00 +13°C° 0 mm 1 m/s 716 mmHg 78%
    22:00 +12°C° 0 mm 1 m/s 716 mmHg 78%
    23:00 +12°C° 0 mm 1 m/s 716 mmHg 79%

    24 Setembro, Terça-feira

    Tempo Temperatura Precipitação Vento Pressão Humidade
    00:00 +12°C° 0 mm 1 m/s 715 mmHg 80%
    01:00 +12°C° 0 mm 1 m/s 715 mmHg 81%
    02:00 +11°C° 0 mm 1 m/s 715 mmHg 82%
    03:00 +10°C° 0 mm 0 m/s 715 mmHg 82%
    04:00 +10°C° 0 mm 0 m/s 715 mmHg 83%
    05:00 +10°C° 0 mm 0 m/s 715 mmHg 82%
    06:00 +11°C° 0 mm 0 m/s 715 mmHg 81%
    07:00 +11°C° 0 mm 0 m/s 715 mmHg 81%
    08:00 +12°C° 0 mm 0 m/s 715 mmHg 79%
    09:00 +12°C° 0 mm 0 m/s 715 mmHg 77%
    10:00 +13°C° 0 mm 0 m/s 715 mmHg 76%
    11:00 +13°C° 0 mm 0 m/s 715 mmHg 76%
    12:00 +13°C° 0 mm 0 m/s 715 mmHg 77%
    13:00 +13°C° 0 mm 0 m/s 715 mmHg 78%
    14:00 +13°C° 0 mm 0 m/s 715 mmHg 79%
    15:00 +14°C° 0 mm 1 m/s 715 mmHg 79%
    16:00 +14°C° 0 mm 1 m/s 715 mmHg 80%
    17:00 +13°C° 0 mm 1 m/s 715 mmHg 83%
    18:00 +12°C° 0 mm 1 m/s 715 mmHg 86%
    19:00 +11°C° 0 mm 1 m/s 715 mmHg 89%
    20:00 +11°C° 0 mm 1 m/s 715 mmHg 90%
    21:00 +10°C° 0 mm 1 m/s 715 mmHg 90%
    22:00 +9°C° 0 mm 0 m/s 715 mmHg 91%
    23:00 +9°C° 0 mm 0 m/s 715 mmHg 92%

    25 Setembro, Quarta-feira

    Tempo Temperatura Precipitação Vento Pressão Humidade
    00:00 +9°C° 0 mm 0 m/s 715 mmHg 92%
    01:00 +8°C° 0 mm 0 m/s 715 mmHg 92%
    02:00 +8°C° 0 mm 0 m/s 715 mmHg 92%
    03:00 +8°C° 0 mm 0 m/s 715 mmHg 93%
    04:00 +8°C° 0 mm 0 m/s 715 mmHg 93%
    05:00 +9°C° 0 mm 0 m/s 715 mmHg 91%
    06:00 +9°C° 0 mm 0 m/s 715 mmHg 89%
    07:00 +10°C° 0 mm 0 m/s 715 mmHg 87%
    08:00 +13°C° 0 mm 1 m/s 715 mmHg 80%
    09:00 +15°C° 0 mm 1 m/s 715 mmHg 74%
    10:00 +18°C° 0 mm 1 m/s 716 mmHg 68%
    11:00 +19°C° 0 mm 1 m/s 716 mmHg 65%
    12:00 +19°C° 0 mm 1 m/s 715 mmHg 63%
    13:00 +20°C° 0 mm 1 m/s 715 mmHg 60%
    14:00 +19°C° 0.1 mm 1 m/s 715 mmHg 65%
    15:00 +19°C° 0.1 mm 1 m/s 715 mmHg 70%
    16:00 +18°C° 0.1 mm 1 m/s 715 mmHg 75%
    17:00 +16°C° 0.1 mm 1 m/s 715 mmHg 80%
    18:00 +15°C° 0.1 mm 1 m/s 715 mmHg 84%
    19:00 +13°C° 0.1 mm 1 m/s 715 mmHg 88%
    20:00 +13°C° 0.1 mm 1 m/s 715 mmHg 88%
    21:00 +14°C° 0.1 mm 1 m/s 715 mmHg 87%
    22:00 +14°C° 0.1 mm 1 m/s 715 mmHg 87%
    23:00 +14°C° 0.1 mm 1 m/s 715 mmHg 87%
    Mostrar mais